Little Pigeon at Sevierville [ USA-TNN ]

Edit Gauge

Current Conditions

Reading of "n/a" = frozen gauge or gauge error.
Reading Trend Type Updated
398 cfs 5 cfs/hr Flow 01h09m
1.93 ft 0.01 ft/hr Feet Stage 01h09m

Station Description

AW Gauge ID: 50462
Source: tva
Station: ls006
Enabled yes
Data is courtesy of TVA. These provisional data have not been reviewed or edited, and may be subject to significant change. Source Gauge's Page

Information

Gauge History

Times listed in GMT 24h, ET and PT hours provided for convenience Graphs in GMT. Readings of "n/a" constitute a frozen gauge or gauge error.
Reading Updated (GMT) Eastern Pacific Comment
1.93 06/04/2020 08:59:44 Jun 4 04:59 am Jun 4 1:59 am
1.92 06/04/2020 08:00:00 Jun 4 04:00 am Jun 4 1:00 am
1.92 06/04/2020 06:58:08 Jun 4 02:58 am Jun 3 11:58 pm
1.92 06/04/2020 05:58:24 Jun 4 01:58 am Jun 3 10:58 pm
1.93 06/04/2020 04:58:40 Jun 4 12:58 am Jun 3 9:58 pm
1.94 06/04/2020 03:58:56 Jun 3 11:58 pm Jun 3 8:58 pm
1.96 06/04/2020 02:59:12 Jun 3 10:59 pm Jun 3 7:59 pm
1.96 06/04/2020 01:59:28 Jun 3 09:59 pm Jun 3 6:59 pm
2.00 06/03/2020 01:59:28 Jun 2 09:59 pm Jun 2 6:59 pm
2.01 06/03/2020 00:59:44 Jun 2 08:59 pm Jun 2 5:59 pm
2.02 06/03/2020 00:00:00 Jun 2 08:00 pm Jun 2 5:00 pm
2.02 06/02/2020 22:58:08 Jun 2 06:58 pm Jun 2 3:58 pm
2.03 06/02/2020 21:58:24 Jun 2 05:58 pm Jun 2 2:58 pm
2.02 06/02/2020 20:58:40 Jun 2 04:58 pm Jun 2 1:58 pm
2.02 06/02/2020 19:58:56 Jun 2 03:58 pm Jun 2 12:58 pm
2.02 06/02/2020 18:59:12 Jun 2 02:59 pm Jun 2 11:59 am
2.02 06/02/2020 17:59:28 Jun 2 01:59 pm Jun 2 10:59 am
2.02 06/02/2020 16:59:44 Jun 2 12:59 pm Jun 2 9:59 am
2.02 06/02/2020 14:58:08 Jun 2 10:58 am Jun 2 7:58 am
2.02 06/02/2020 13:58:24 Jun 2 09:58 am Jun 2 6:58 am
2.02 06/02/2020 12:58:40 Jun 2 08:58 am Jun 2 5:58 am
2.03 06/02/2020 11:58:56 Jun 2 07:58 am Jun 2 4:58 am
2.03 06/02/2020 10:59:12 Jun 2 06:59 am Jun 2 3:59 am
2.03 06/02/2020 09:59:28 Jun 2 05:59 am Jun 2 2:59 am
2.03 06/02/2020 08:59:44 Jun 2 04:59 am Jun 2 1:59 am
2.03 06/02/2020 08:00:00 Jun 2 04:00 am Jun 2 1:00 am
2.04 06/02/2020 06:58:08 Jun 2 02:58 am Jun 1 11:58 pm
2.05 06/02/2020 05:58:24 Jun 2 01:58 am Jun 1 10:58 pm
2.05 06/02/2020 04:58:40 Jun 2 12:58 am Jun 1 9:58 pm
2.06 06/02/2020 03:58:56 Jun 1 11:58 pm Jun 1 8:58 pm
2.06 06/02/2020 02:59:12 Jun 1 10:59 pm Jun 1 7:59 pm
2.07 06/02/2020 01:59:28 Jun 1 09:59 pm Jun 1 6:59 pm
2.08 06/02/2020 00:59:44 Jun 1 08:59 pm Jun 1 5:59 pm
2.08 06/02/2020 00:00:00 Jun 1 08:00 pm Jun 1 5:00 pm
2.08 06/01/2020 22:58:08 Jun 1 06:58 pm Jun 1 3:58 pm
2.08 06/01/2020 21:58:24 Jun 1 05:58 pm Jun 1 2:58 pm
2.09 06/01/2020 20:58:40 Jun 1 04:58 pm Jun 1 1:58 pm
2.09 06/01/2020 19:58:56 Jun 1 03:58 pm Jun 1 12:58 pm
2.09 06/01/2020 18:59:12 Jun 1 02:59 pm Jun 1 11:59 am
2.09 06/01/2020 17:59:28 Jun 1 01:59 pm Jun 1 10:59 am
2.09 06/01/2020 16:59:44 Jun 1 12:59 pm Jun 1 9:59 am
2.08 06/01/2020 14:58:08 Jun 1 10:58 am Jun 1 7:58 am
2.07 06/01/2020 13:58:24 Jun 1 09:58 am Jun 1 6:58 am
2.08 06/01/2020 12:58:40 Jun 1 08:58 am Jun 1 5:58 am
2.08 06/01/2020 11:58:56 Jun 1 07:58 am Jun 1 4:58 am
2.08 06/01/2020 10:59:12 Jun 1 06:59 am Jun 1 3:59 am
2.09 06/01/2020 09:59:28 Jun 1 05:59 am Jun 1 2:59 am
2.09 06/01/2020 08:59:44 Jun 1 04:59 am Jun 1 1:59 am
2.09 06/01/2020 08:00:00 Jun 1 04:00 am Jun 1 1:00 am
2.10 06/01/2020 06:58:08 Jun 1 02:58 am May 31 11:58 pm
2.10 06/01/2020 05:58:24 Jun 1 01:58 am May 31 10:58 pm
2.11 06/01/2020 04:58:40 Jun 1 12:58 am May 31 9:58 pm
2.12 06/01/2020 03:58:56 May 31 11:58 pm May 31 8:58 pm
2.12 06/01/2020 02:59:12 May 31 10:59 pm May 31 7:59 pm
2.14 06/01/2020 01:59:28 May 31 09:59 pm May 31 6:59 pm
2.14 06/01/2020 00:59:44 May 31 08:59 pm May 31 5:59 pm
2.14 06/01/2020 00:00:00 May 31 08:00 pm May 31 5:00 pm
2.16 05/31/2020 22:58:08 May 31 06:58 pm May 31 3:58 pm
2.16 05/31/2020 21:58:24 May 31 05:58 pm May 31 2:58 pm
2.16 05/31/2020 20:58:40 May 31 04:58 pm May 31 1:58 pm
2.17 05/31/2020 19:58:56 May 31 03:58 pm May 31 12:58 pm
2.17 05/31/2020 18:59:12 May 31 02:59 pm May 31 11:59 am
2.17 05/31/2020 17:59:28 May 31 01:59 pm May 31 10:59 am
2.17 05/31/2020 16:59:44 May 31 12:59 pm May 31 9:59 am
2.18 05/31/2020 14:58:08 May 31 10:58 am May 31 7:58 am
2.18 05/31/2020 13:58:24 May 31 09:58 am May 31 6:58 am
2.18 05/31/2020 12:58:40 May 31 08:58 am May 31 5:58 am
2.19 05/31/2020 11:58:56 May 31 07:58 am May 31 4:58 am
2.19 05/31/2020 10:59:12 May 31 06:59 am May 31 3:59 am
2.20 05/31/2020 09:59:28 May 31 05:59 am May 31 2:59 am
2.20 05/31/2020 08:59:44 May 31 04:59 am May 31 1:59 am
2.20 05/31/2020 08:00:00 May 31 04:00 am May 31 1:00 am
2.22 05/31/2020 06:58:08 May 31 02:58 am May 30 11:58 pm
2.22 05/31/2020 05:58:24 May 31 01:58 am May 30 10:58 pm
2.22 05/31/2020 04:58:40 May 31 12:58 am May 30 9:58 pm
2.24 05/31/2020 03:58:56 May 30 11:58 pm May 30 8:58 pm
2.25 05/31/2020 02:59:12 May 30 10:59 pm May 30 7:59 pm
2.25 05/31/2020 01:59:28 May 30 09:59 pm May 30 6:59 pm
2.32 05/30/2020 12:58:40 May 30 08:58 am May 30 5:58 am
2.34 05/30/2020 11:58:56 May 30 07:58 am May 30 4:58 am
2.36 05/30/2020 10:59:12 May 30 06:59 am May 30 3:59 am
2.36 05/30/2020 09:59:28 May 30 05:59 am May 30 2:59 am
2.37 05/30/2020 08:59:44 May 30 04:59 am May 30 1:59 am
2.37 05/30/2020 08:00:00 May 30 04:00 am May 30 1:00 am
2.35 05/30/2020 06:58:08 May 30 02:58 am May 29 11:58 pm
2.31 05/30/2020 05:58:24 May 30 01:58 am May 29 10:58 pm
2.28 05/30/2020 04:58:40 May 30 12:58 am May 29 9:58 pm
2.29 05/30/2020 03:58:56 May 29 11:58 pm May 29 8:58 pm
2.30 05/30/2020 02:59:12 May 29 10:59 pm May 29 7:59 pm
2.30 05/30/2020 01:59:28 May 29 09:59 pm May 29 6:59 pm
2.32 05/30/2020 00:59:44 May 29 08:59 pm May 29 5:59 pm
2.33 05/30/2020 00:00:00 May 29 08:00 pm May 29 5:00 pm
2.33 05/29/2020 22:58:08 May 29 06:58 pm May 29 3:58 pm
2.35 05/29/2020 21:58:24 May 29 05:58 pm May 29 2:58 pm
2.35 05/29/2020 20:58:40 May 29 04:58 pm May 29 1:58 pm
2.36 05/29/2020 19:58:56 May 29 03:58 pm May 29 12:58 pm
2.37 05/29/2020 18:59:12 May 29 02:59 pm May 29 11:59 am
2.38 05/29/2020 17:59:28 May 29 01:59 pm May 29 10:59 am
2.38 05/29/2020 16:59:44 May 29 12:59 pm May 29 9:59 am
2.34 05/29/2020 14:58:08 May 29 10:58 am May 29 7:58 am
2.33 05/29/2020 13:58:24 May 29 09:58 am May 29 6:58 am
2.34 05/29/2020 12:58:40 May 29 08:58 am May 29 5:58 am
2.34 05/29/2020 11:58:56 May 29 07:58 am May 29 4:58 am
2.36 05/29/2020 10:59:12 May 29 06:59 am May 29 3:59 am
2.36 05/29/2020 09:59:28 May 29 05:59 am May 29 2:59 am
2.37 05/29/2020 08:59:44 May 29 04:59 am May 29 1:59 am
2.37 05/29/2020 08:00:00 May 29 04:00 am May 29 1:00 am
2.38 05/29/2020 06:58:08 May 29 02:58 am May 28 11:58 pm
2.39 05/29/2020 05:58:24 May 29 01:58 am May 28 10:58 pm
2.39 05/29/2020 04:58:40 May 29 12:58 am May 28 9:58 pm
2.39 05/29/2020 03:58:56 May 28 11:58 pm May 28 8:58 pm
2.40 05/29/2020 02:59:12 May 28 10:59 pm May 28 7:59 pm
2.40 05/29/2020 01:59:28 May 28 09:59 pm May 28 6:59 pm
2.41 05/29/2020 00:59:44 May 28 08:59 pm May 28 5:59 pm
2.43 05/29/2020 00:00:00 May 28 08:00 pm May 28 5:00 pm
2.45 05/28/2020 22:58:08 May 28 06:58 pm May 28 3:58 pm
2.45 05/28/2020 21:58:24 May 28 05:58 pm May 28 2:58 pm
2.48 05/28/2020 20:58:40 May 28 04:58 pm May 28 1:58 pm
2.47 05/28/2020 19:58:56 May 28 03:58 pm May 28 12:58 pm
2.40 05/28/2020 18:59:12 May 28 02:59 pm May 28 11:59 am
2.40 05/28/2020 17:59:28 May 28 01:59 pm May 28 10:59 am
2.41 05/28/2020 16:59:44 May 28 12:59 pm May 28 9:59 am
2.41 05/28/2020 14:58:08 May 28 10:58 am May 28 7:58 am
2.42 05/28/2020 13:58:24 May 28 09:58 am May 28 6:58 am
2.43 05/28/2020 12:58:40 May 28 08:58 am May 28 5:58 am
2.43 05/28/2020 11:58:56 May 28 07:58 am May 28 4:58 am
2.45 05/28/2020 10:59:12 May 28 06:59 am May 28 3:59 am
2.44 05/28/2020 09:59:28 May 28 05:59 am May 28 2:59 am
2.45 05/28/2020 08:59:44 May 28 04:59 am May 28 1:59 am
2.46 05/28/2020 08:00:00 May 28 04:00 am May 28 1:00 am
2.46 05/28/2020 06:58:08 May 28 02:58 am May 27 11:58 pm
2.47 05/28/2020 05:58:24 May 28 01:58 am May 27 10:58 pm
2.47 05/28/2020 04:58:40 May 28 12:58 am May 27 9:58 pm
2.49 05/28/2020 03:58:56 May 27 11:58 pm May 27 8:58 pm
2.49 05/28/2020 02:59:12 May 27 10:59 pm May 27 7:59 pm
2.50 05/28/2020 01:59:28 May 27 09:59 pm May 27 6:59 pm
2.52 05/28/2020 00:59:44 May 27 08:59 pm May 27 5:59 pm
2.52 05/28/2020 00:00:00 May 27 08:00 pm May 27 5:00 pm
2.54 05/27/2020 22:58:08 May 27 06:58 pm May 27 3:58 pm
2.55 05/27/2020 21:58:24 May 27 05:58 pm May 27 2:58 pm
2.54 05/27/2020 20:58:40 May 27 04:58 pm May 27 1:58 pm
2.53 05/27/2020 19:58:56 May 27 03:58 pm May 27 12:58 pm
2.54 05/27/2020 18:59:12 May 27 02:59 pm May 27 11:59 am
2.58 05/27/2020 17:59:28 May 27 01:59 pm May 27 10:59 am
2.59 05/27/2020 16:59:44 May 27 12:59 pm May 27 9:59 am
2.60 05/27/2020 14:58:08 May 27 10:58 am May 27 7:58 am
2.61 05/27/2020 13:58:24 May 27 09:58 am May 27 6:58 am
2.62 05/27/2020 12:58:40 May 27 08:58 am May 27 5:58 am
2.64 05/27/2020 11:58:56 May 27 07:58 am May 27 4:58 am
2.65 05/27/2020 10:59:12 May 27 06:59 am May 27 3:59 am
2.66 05/27/2020 09:59:28 May 27 05:59 am May 27 2:59 am
2.68 05/27/2020 08:59:44 May 27 04:59 am May 27 1:59 am
2.69 05/27/2020 08:00:00 May 27 04:00 am May 27 1:00 am
2.71 05/27/2020 06:58:08 May 27 02:58 am May 26 11:58 pm
2.73 05/27/2020 05:58:24 May 27 01:58 am May 26 10:58 pm
2.75 05/27/2020 04:58:40 May 27 12:58 am May 26 9:58 pm
2.78 05/27/2020 03:58:56 May 26 11:58 pm May 26 8:58 pm
2.77 05/27/2020 02:59:12 May 26 10:59 pm May 26 7:59 pm
2.75 05/27/2020 01:59:28 May 26 09:59 pm May 26 6:59 pm
2.76 05/27/2020 00:59:44 May 26 08:59 pm May 26 5:59 pm
2.78 05/27/2020 00:00:00 May 26 08:00 pm May 26 5:00 pm
2.82 05/26/2020 22:58:08 May 26 06:58 pm May 26 3:58 pm
2.86 05/26/2020 21:58:24 May 26 05:58 pm May 26 2:58 pm
2.74 05/26/2020 20:58:40 May 26 04:58 pm May 26 1:58 pm
2.73 05/26/2020 19:58:56 May 26 03:58 pm May 26 12:58 pm
2.73 05/26/2020 18:59:12 May 26 02:59 pm May 26 11:59 am
2.73 05/26/2020 17:59:28 May 26 01:59 pm May 26 10:59 am
2.76 05/26/2020 16:59:44 May 26 12:59 pm May 26 9:59 am
2.79 05/26/2020 14:58:08 May 26 10:58 am May 26 7:58 am
2.80 05/26/2020 13:58:24 May 26 09:58 am May 26 6:58 am
2.83 05/26/2020 12:58:40 May 26 08:58 am May 26 5:58 am
2.86 05/26/2020 11:58:56 May 26 07:58 am May 26 4:58 am
2.88 05/26/2020 10:59:12 May 26 06:59 am May 26 3:59 am
2.91 05/26/2020 09:59:28 May 26 05:59 am May 26 2:59 am
2.95 05/26/2020 08:59:44 May 26 04:59 am May 26 1:59 am
3.00 05/26/2020 08:00:00 May 26 04:00 am May 26 1:00 am
3.05 05/26/2020 06:58:08 May 26 02:58 am May 25 11:58 pm
3.11 05/26/2020 05:58:24 May 26 01:58 am May 25 10:58 pm
3.20 05/26/2020 04:58:40 May 26 12:58 am May 25 9:58 pm
3.30 05/26/2020 03:58:56 May 25 11:58 pm May 25 8:58 pm
3.39 05/26/2020 02:59:12 May 25 10:59 pm May 25 7:59 pm
3.51 05/26/2020 01:59:28 May 25 09:59 pm May 25 6:59 pm
3.20 05/26/2020 00:59:44 May 25 08:59 pm May 25 5:59 pm
2.64 05/26/2020 00:00:00 May 25 08:00 pm May 25 5:00 pm
2.64 05/25/2020 22:58:08 May 25 06:58 pm May 25 3:58 pm
2.65 05/25/2020 21:58:24 May 25 05:58 pm May 25 2:58 pm
2.66 05/25/2020 20:58:40 May 25 04:58 pm May 25 1:58 pm
2.67 05/25/2020 19:58:56 May 25 03:58 pm May 25 12:58 pm
2.67 05/25/2020 18:59:12 May 25 02:59 pm May 25 11:59 am
2.70 05/25/2020 17:59:28 May 25 01:59 pm May 25 10:59 am
2.71 05/25/2020 16:59:44 May 25 12:59 pm May 25 9:59 am
2.76 05/25/2020 14:58:08 May 25 10:58 am May 25 7:58 am
2.77 05/25/2020 13:58:24 May 25 09:58 am May 25 6:58 am
2.81 05/25/2020 12:58:40 May 25 08:58 am May 25 5:58 am
2.84 05/25/2020 11:58:56 May 25 07:58 am May 25 4:58 am
2.87 05/25/2020 10:59:12 May 25 06:59 am May 25 3:59 am
2.92 05/25/2020 09:59:28 May 25 05:59 am May 25 2:59 am
2.98 05/25/2020 08:59:44 May 25 04:59 am May 25 1:59 am
3.03 05/25/2020 08:00:00 May 25 04:00 am May 25 1:00 am
3.07 05/25/2020 06:58:08 May 25 02:58 am May 24 11:58 pm
3.03 05/25/2020 05:58:24 May 25 01:58 am May 24 10:58 pm
2.80 05/25/2020 04:58:40 May 25 12:58 am May 24 9:58 pm
2.63 05/25/2020 03:58:56 May 24 11:58 pm May 24 8:58 pm
2.57 05/25/2020 02:59:12 May 24 10:59 pm May 24 7:59 pm
2.57 05/25/2020 01:59:28 May 24 09:59 pm May 24 6:59 pm
2.57 05/25/2020 00:59:44 May 24 08:59 pm May 24 5:59 pm
2.60 05/25/2020 00:00:00 May 24 08:00 pm May 24 5:00 pm
2.65 05/24/2020 22:58:08 May 24 06:58 pm May 24 3:58 pm
2.78 05/24/2020 21:58:24 May 24 05:58 pm May 24 2:58 pm
2.96 05/24/2020 20:58:40 May 24 04:58 pm May 24 1:58 pm
2.76 05/24/2020 19:58:56 May 24 03:58 pm May 24 12:58 pm
2.58 05/24/2020 18:59:12 May 24 02:59 pm May 24 11:59 am
2.60 05/24/2020 17:59:28 May 24 01:59 pm May 24 10:59 am
2.60 05/24/2020 16:59:44 May 24 12:59 pm May 24 9:59 am
2.62 05/24/2020 14:58:08 May 24 10:58 am May 24 7:58 am
2.63 05/24/2020 13:58:24 May 24 09:58 am May 24 6:58 am
2.64 05/24/2020 12:58:40 May 24 08:58 am May 24 5:58 am
2.65 05/24/2020 11:58:56 May 24 07:58 am May 24 4:58 am
2.66 05/24/2020 10:59:12 May 24 06:59 am May 24 3:59 am
2.68 05/24/2020 09:59:28 May 24 05:59 am May 24 2:59 am
2.68 05/24/2020 08:59:44 May 24 04:59 am May 24 1:59 am
2.71 05/24/2020 08:00:00 May 24 04:00 am May 24 1:00 am
2.71 05/24/2020 06:58:08 May 24 02:58 am May 23 11:58 pm
2.73 05/24/2020 05:58:24 May 24 01:58 am May 23 10:58 pm
2.74 05/24/2020 04:58:40 May 24 12:58 am May 23 9:58 pm
2.74 05/24/2020 03:58:56 May 23 11:58 pm May 23 8:58 pm
2.77 05/24/2020 02:59:12 May 23 10:59 pm May 23 7:59 pm
2.77 05/24/2020 01:59:28 May 23 09:59 pm May 23 6:59 pm
2.79 05/24/2020 00:59:44 May 23 08:59 pm May 23 5:59 pm
2.80 05/24/2020 00:00:00 May 23 08:00 pm May 23 5:00 pm
2.81 05/23/2020 22:58:08 May 23 06:58 pm May 23 3:58 pm
2.84 05/23/2020 21:58:24 May 23 05:58 pm May 23 2:58 pm
2.86 05/23/2020 20:58:40 May 23 04:58 pm May 23 1:58 pm
2.86 05/23/2020 19:58:56 May 23 03:58 pm May 23 12:58 pm
2.88 05/23/2020 18:59:12 May 23 02:59 pm May 23 11:59 am
2.90 05/23/2020 17:59:28 May 23 01:59 pm May 23 10:59 am
2.90 05/23/2020 16:59:44 May 23 12:59 pm May 23 9:59 am
2.93 05/23/2020 14:58:08 May 23 10:58 am May 23 7:58 am
2.95 05/23/2020 13:58:24 May 23 09:58 am May 23 6:58 am
2.97 05/23/2020 12:58:40 May 23 08:58 am May 23 5:58 am
2.99 05/23/2020 11:58:56 May 23 07:58 am May 23 4:58 am
3.03 05/23/2020 10:59:12 May 23 06:59 am May 23 3:59 am
3.04 05/23/2020 09:59:28 May 23 05:59 am May 23 2:59 am
3.05 05/23/2020 08:59:44 May 23 04:59 am May 23 1:59 am
3.04 05/23/2020 08:00:00 May 23 04:00 am May 23 1:00 am
3.01 05/23/2020 06:58:08 May 23 02:58 am May 22 11:58 pm
3.01 05/23/2020 05:58:24 May 23 01:58 am May 22 10:58 pm
3.00 05/23/2020 04:58:40 May 23 12:58 am May 22 9:58 pm
2.99 05/23/2020 03:58:56 May 22 11:58 pm May 22 8:58 pm
2.98 05/23/2020 02:59:12 May 22 10:59 pm May 22 7:59 pm
2.97 05/23/2020 01:59:28 May 22 09:59 pm May 22 6:59 pm
2.97 05/23/2020 00:59:44 May 22 08:59 pm May 22 5:59 pm
2.95 05/23/2020 00:00:00 May 22 08:00 pm May 22 5:00 pm
2.92 05/22/2020 22:58:08 May 22 06:58 pm May 22 3:58 pm
2.80 05/22/2020 21:58:24 May 22 05:58 pm May 22 2:58 pm
2.66 05/22/2020 20:58:40 May 22 04:58 pm May 22 1:58 pm
2.63 05/22/2020 19:58:56 May 22 03:58 pm May 22 12:58 pm
2.56 05/22/2020 18:59:12 May 22 02:59 pm May 22 11:59 am
2.55 05/22/2020 17:59:28 May 22 01:59 pm May 22 10:59 am
2.51 05/22/2020 16:59:44 May 22 12:59 pm May 22 9:59 am
2.50 05/22/2020 14:58:08 May 22 10:58 am May 22 7:58 am
2.50 05/22/2020 13:58:24 May 22 09:58 am May 22 6:58 am
2.51 05/22/2020 12:58:40 May 22 08:58 am May 22 5:58 am
2.51 05/22/2020 11:58:56 May 22 07:58 am May 22 4:58 am
2.51 05/22/2020 10:59:12 May 22 06:59 am May 22 3:59 am
2.53 05/22/2020 09:59:28 May 22 05:59 am May 22 2:59 am
2.55 05/22/2020 08:59:44 May 22 04:59 am May 22 1:59 am
2.56 05/22/2020 08:00:00 May 22 04:00 am May 22 1:00 am
2.57 05/22/2020 06:58:08 May 22 02:58 am May 21 11:58 pm
2.58 05/22/2020 05:58:24 May 22 01:58 am May 21 10:58 pm
2.58 05/22/2020 04:58:40 May 22 12:58 am May 21 9:58 pm
2.59 05/22/2020 03:58:56 May 21 11:58 pm May 21 8:58 pm
2.60 05/22/2020 02:59:12 May 21 10:59 pm May 21 7:59 pm
2.60 05/22/2020 01:59:28 May 21 09:59 pm May 21 6:59 pm
2.60 05/22/2020 00:59:44 May 21 08:59 pm May 21 5:59 pm
2.62 05/22/2020 00:00:00 May 21 08:00 pm May 21 5:00 pm
2.63 05/21/2020 22:58:08 May 21 06:58 pm May 21 3:58 pm
2.64 05/21/2020 21:58:24 May 21 05:58 pm May 21 2:58 pm
2.66 05/21/2020 20:58:40 May 21 04:58 pm May 21 1:58 pm
2.67 05/21/2020 19:58:56 May 21 03:58 pm May 21 12:58 pm
2.68 05/21/2020 18:59:12 May 21 02:59 pm May 21 11:59 am
2.70 05/21/2020 17:59:28 May 21 01:59 pm May 21 10:59 am
2.70 05/21/2020 16:59:44 May 21 12:59 pm May 21 9:59 am
2.73 05/21/2020 14:58:08 May 21 10:58 am May 21 7:58 am
2.74 05/21/2020 13:58:24 May 21 09:58 am May 21 6:58 am
2.75 05/21/2020 12:58:40 May 21 08:58 am May 21 5:58 am
2.77 05/21/2020 11:58:56 May 21 07:58 am May 21 4:58 am
2.80 05/21/2020 10:59:12 May 21 06:59 am May 21 3:59 am
2.82 05/21/2020 09:59:28 May 21 05:59 am May 21 2:59 am
2.84 05/21/2020 08:59:44 May 21 04:59 am May 21 1:59 am
2.86 05/21/2020 08:00:00 May 21 04:00 am May 21 1:00 am
2.88 05/21/2020 06:58:08 May 21 02:58 am May 20 11:58 pm
2.90 05/21/2020 05:58:24 May 21 01:58 am May 20 10:58 pm
2.91 05/21/2020 04:58:40 May 21 12:58 am May 20 9:58 pm
2.93 05/21/2020 03:58:56 May 20 11:58 pm May 20 8:58 pm
2.96 05/21/2020 02:59:12 May 20 10:59 pm May 20 7:59 pm
3.00 05/21/2020 01:59:28 May 20 09:59 pm May 20 6:59 pm
3.05 05/21/2020 00:59:44 May 20 08:59 pm May 20 5:59 pm
3.09 05/21/2020 00:00:00 May 20 08:00 pm May 20 5:00 pm
3.14 05/20/2020 22:58:08 May 20 06:58 pm May 20 3:58 pm

Gauge History

Times listed in GMT 24h, ET and PT hours provided for convenience Graphs in GMT. Readings of "n/a" constitute a frozen gauge or gauge error.
Reading Updated (GMT) Eastern Pacific Comment
398.00 06/04/2020 08:59:44 Jun 4 04:59 am Jun 4 1:59 am
393.00 06/04/2020 08:00:00 Jun 4 04:00 am Jun 4 1:00 am
393.00 06/04/2020 06:58:08 Jun 4 02:58 am Jun 3 11:58 pm
393.00 06/04/2020 05:58:24 Jun 4 01:58 am Jun 3 10:58 pm
398.00 06/04/2020 04:58:40 Jun 4 12:58 am Jun 3 9:58 pm
404.00 06/04/2020 03:58:56 Jun 3 11:58 pm Jun 3 8:58 pm
415.00 06/04/2020 02:59:12 Jun 3 10:59 pm Jun 3 7:59 pm
415.00 06/04/2020 01:59:28 Jun 3 09:59 pm Jun 3 6:59 pm
438.00 06/03/2020 01:59:28 Jun 2 09:59 pm Jun 2 6:59 pm
445.00 06/03/2020 00:59:44 Jun 2 08:59 pm Jun 2 5:59 pm
451.00 06/03/2020 00:00:00 Jun 2 08:00 pm Jun 2 5:00 pm
451.00 06/02/2020 22:58:08 Jun 2 06:58 pm Jun 2 3:58 pm
458.00 06/02/2020 21:58:24 Jun 2 05:58 pm Jun 2 2:58 pm
451.00 06/02/2020 20:58:40 Jun 2 04:58 pm Jun 2 1:58 pm
451.00 06/02/2020 19:58:56 Jun 2 03:58 pm Jun 2 12:58 pm
451.00 06/02/2020 18:59:12 Jun 2 02:59 pm Jun 2 11:59 am
451.00 06/02/2020 17:59:28 Jun 2 01:59 pm Jun 2 10:59 am
451.00 06/02/2020 16:59:44 Jun 2 12:59 pm Jun 2 9:59 am
451.00 06/02/2020 14:58:08 Jun 2 10:58 am Jun 2 7:58 am
451.00 06/02/2020 13:58:24 Jun 2 09:58 am Jun 2 6:58 am
451.00 06/02/2020 12:58:40 Jun 2 08:58 am Jun 2 5:58 am
458.00 06/02/2020 11:58:56 Jun 2 07:58 am Jun 2 4:58 am
458.00 06/02/2020 10:59:12 Jun 2 06:59 am Jun 2 3:59 am
458.00 06/02/2020 09:59:28 Jun 2 05:59 am Jun 2 2:59 am
458.00 06/02/2020 08:59:44 Jun 2 04:59 am Jun 2 1:59 am
458.00 06/02/2020 08:00:00 Jun 2 04:00 am Jun 2 1:00 am
465.00 06/02/2020 06:58:08 Jun 2 02:58 am Jun 1 11:58 pm
472.00 06/02/2020 05:58:24 Jun 2 01:58 am Jun 1 10:58 pm
472.00 06/02/2020 04:58:40 Jun 2 12:58 am Jun 1 9:58 pm
479.00 06/02/2020 03:58:56 Jun 1 11:58 pm Jun 1 8:58 pm
479.00 06/02/2020 02:59:12 Jun 1 10:59 pm Jun 1 7:59 pm
486.00 06/02/2020 01:59:28 Jun 1 09:59 pm Jun 1 6:59 pm
493.00 06/02/2020 00:59:44 Jun 1 08:59 pm Jun 1 5:59 pm
493.00 06/02/2020 00:00:00 Jun 1 08:00 pm Jun 1 5:00 pm
493.00 06/01/2020 22:58:08 Jun 1 06:58 pm Jun 1 3:58 pm
493.00 06/01/2020 21:58:24 Jun 1 05:58 pm Jun 1 2:58 pm
500.00 06/01/2020 20:58:40 Jun 1 04:58 pm Jun 1 1:58 pm
500.00 06/01/2020 19:58:56 Jun 1 03:58 pm Jun 1 12:58 pm
500.00 06/01/2020 18:59:12 Jun 1 02:59 pm Jun 1 11:59 am
500.00 06/01/2020 17:59:28 Jun 1 01:59 pm Jun 1 10:59 am
500.00 06/01/2020 16:59:44 Jun 1 12:59 pm Jun 1 9:59 am
493.00 06/01/2020 14:58:08 Jun 1 10:58 am Jun 1 7:58 am
486.00 06/01/2020 13:58:24 Jun 1 09:58 am Jun 1 6:58 am
493.00 06/01/2020 12:58:40 Jun 1 08:58 am Jun 1 5:58 am
493.00 06/01/2020 11:58:56 Jun 1 07:58 am Jun 1 4:58 am
493.00 06/01/2020 10:59:12 Jun 1 06:59 am Jun 1 3:59 am
500.00 06/01/2020 09:59:28 Jun 1 05:59 am Jun 1 2:59 am
500.00 06/01/2020 08:59:44 Jun 1 04:59 am Jun 1 1:59 am
500.00 06/01/2020 08:00:00 Jun 1 04:00 am Jun 1 1:00 am
507.00 06/01/2020 06:58:08 Jun 1 02:58 am May 31 11:58 pm
507.00 06/01/2020 05:58:24 Jun 1 01:58 am May 31 10:58 pm
513.00 06/01/2020 04:58:40 Jun 1 12:58 am May 31 9:58 pm
519.00 06/01/2020 03:58:56 May 31 11:58 pm May 31 8:58 pm
519.00 06/01/2020 02:59:12 May 31 10:59 pm May 31 7:59 pm
531.00 06/01/2020 01:59:28 May 31 09:59 pm May 31 6:59 pm
531.00 06/01/2020 00:59:44 May 31 08:59 pm May 31 5:59 pm
531.00 06/01/2020 00:00:00 May 31 08:00 pm May 31 5:00 pm
543.00 05/31/2020 22:58:08 May 31 06:58 pm May 31 3:58 pm
543.00 05/31/2020 21:58:24 May 31 05:58 pm May 31 2:58 pm
543.00 05/31/2020 20:58:40 May 31 04:58 pm May 31 1:58 pm
549.00 05/31/2020 19:58:56 May 31 03:58 pm May 31 12:58 pm
549.00 05/31/2020 18:59:12 May 31 02:59 pm May 31 11:59 am
549.00 05/31/2020 17:59:28 May 31 01:59 pm May 31 10:59 am
549.00 05/31/2020 16:59:44 May 31 12:59 pm May 31 9:59 am
555.00 05/31/2020 14:58:08 May 31 10:58 am May 31 7:58 am
555.00 05/31/2020 13:58:24 May 31 09:58 am May 31 6:58 am
555.00 05/31/2020 12:58:40 May 31 08:58 am May 31 5:58 am
561.00 05/31/2020 11:58:56 May 31 07:58 am May 31 4:58 am
561.00 05/31/2020 10:59:12 May 31 06:59 am May 31 3:59 am
567.00 05/31/2020 09:59:28 May 31 05:59 am May 31 2:59 am
567.00 05/31/2020 08:59:44 May 31 04:59 am May 31 1:59 am
567.00 05/31/2020 08:00:00 May 31 04:00 am May 31 1:00 am
580.00 05/31/2020 06:58:08 May 31 02:58 am May 30 11:58 pm
580.00 05/31/2020 05:58:24 May 31 01:58 am May 30 10:58 pm
580.00 05/31/2020 04:58:40 May 31 12:58 am May 30 9:58 pm
593.00 05/31/2020 03:58:56 May 30 11:58 pm May 30 8:58 pm
599.00 05/31/2020 02:59:12 May 30 10:59 pm May 30 7:59 pm
599.00 05/31/2020 01:59:28 May 30 09:59 pm May 30 6:59 pm
645.00 05/30/2020 12:58:40 May 30 08:58 am May 30 5:58 am
659.00 05/30/2020 11:58:56 May 30 07:58 am May 30 4:58 am
673.00 05/30/2020 10:59:12 May 30 06:59 am May 30 3:59 am
673.00 05/30/2020 09:59:28 May 30 05:59 am May 30 2:59 am
680.00 05/30/2020 08:59:44 May 30 04:59 am May 30 1:59 am
680.00 05/30/2020 08:00:00 May 30 04:00 am May 30 1:00 am
666.00 05/30/2020 06:58:08 May 30 02:58 am May 29 11:58 pm
639.00 05/30/2020 05:58:24 May 30 01:58 am May 29 10:58 pm
619.00 05/30/2020 04:58:40 May 30 12:58 am May 29 9:58 pm
625.00 05/30/2020 03:58:56 May 29 11:58 pm May 29 8:58 pm
632.00 05/30/2020 02:59:12 May 29 10:59 pm May 29 7:59 pm
632.00 05/30/2020 01:59:28 May 29 09:59 pm May 29 6:59 pm
645.00 05/30/2020 00:59:44 May 29 08:59 pm May 29 5:59 pm
652.00 05/30/2020 00:00:00 May 29 08:00 pm May 29 5:00 pm
652.00 05/29/2020 22:58:08 May 29 06:58 pm May 29 3:58 pm
666.00 05/29/2020 21:58:24 May 29 05:58 pm May 29 2:58 pm
666.00 05/29/2020 20:58:40 May 29 04:58 pm May 29 1:58 pm
673.00 05/29/2020 19:58:56 May 29 03:58 pm May 29 12:58 pm
680.00 05/29/2020 18:59:12 May 29 02:59 pm May 29 11:59 am
687.00 05/29/2020 17:59:28 May 29 01:59 pm May 29 10:59 am
687.00 05/29/2020 16:59:44 May 29 12:59 pm May 29 9:59 am
659.00 05/29/2020 14:58:08 May 29 10:58 am May 29 7:58 am
652.00 05/29/2020 13:58:24 May 29 09:58 am May 29 6:58 am
659.00 05/29/2020 12:58:40 May 29 08:58 am May 29 5:58 am
659.00 05/29/2020 11:58:56 May 29 07:58 am May 29 4:58 am
673.00 05/29/2020 10:59:12 May 29 06:59 am May 29 3:59 am
673.00 05/29/2020 09:59:28 May 29 05:59 am May 29 2:59 am
680.00 05/29/2020 08:59:44 May 29 04:59 am May 29 1:59 am
680.00 05/29/2020 08:00:00 May 29 04:00 am May 29 1:00 am
687.00 05/29/2020 06:58:08 May 29 02:58 am May 28 11:58 pm
694.00 05/29/2020 05:58:24 May 29 01:58 am May 28 10:58 pm
694.00 05/29/2020 04:58:40 May 29 12:58 am May 28 9:58 pm
694.00 05/29/2020 03:58:56 May 28 11:58 pm May 28 8:58 pm
701.00 05/29/2020 02:59:12 May 28 10:59 pm May 28 7:59 pm
701.00 05/29/2020 01:59:28 May 28 09:59 pm May 28 6:59 pm
707.00 05/29/2020 00:59:44 May 28 08:59 pm May 28 5:59 pm
720.00 05/29/2020 00:00:00 May 28 08:00 pm May 28 5:00 pm
733.00 05/28/2020 22:58:08 May 28 06:58 pm May 28 3:58 pm
733.00 05/28/2020 21:58:24 May 28 05:58 pm May 28 2:58 pm
753.00 05/28/2020 20:58:40 May 28 04:58 pm May 28 1:58 pm
746.00 05/28/2020 19:58:56 May 28 03:58 pm May 28 12:58 pm
701.00 05/28/2020 18:59:12 May 28 02:59 pm May 28 11:59 am
701.00 05/28/2020 17:59:28 May 28 01:59 pm May 28 10:59 am
707.00 05/28/2020 16:59:44 May 28 12:59 pm May 28 9:59 am
707.00 05/28/2020 14:58:08 May 28 10:58 am May 28 7:58 am
714.00 05/28/2020 13:58:24 May 28 09:58 am May 28 6:58 am
720.00 05/28/2020 12:58:40 May 28 08:58 am May 28 5:58 am
720.00 05/28/2020 11:58:56 May 28 07:58 am May 28 4:58 am
733.00 05/28/2020 10:59:12 May 28 06:59 am May 28 3:59 am
727.00 05/28/2020 09:59:28 May 28 05:59 am May 28 2:59 am
733.00 05/28/2020 08:59:44 May 28 04:59 am May 28 1:59 am
740.00 05/28/2020 08:00:00 May 28 04:00 am May 28 1:00 am
740.00 05/28/2020 06:58:08 May 28 02:58 am May 27 11:58 pm
746.00 05/28/2020 05:58:24 May 28 01:58 am May 27 10:58 pm
746.00 05/28/2020 04:58:40 May 28 12:58 am May 27 9:58 pm
759.00 05/28/2020 03:58:56 May 27 11:58 pm May 27 8:58 pm
759.00 05/28/2020 02:59:12 May 27 10:59 pm May 27 7:59 pm
766.00 05/28/2020 01:59:28 May 27 09:59 pm May 27 6:59 pm
781.00 05/28/2020 00:59:44 May 27 08:59 pm May 27 5:59 pm
781.00 05/28/2020 00:00:00 May 27 08:00 pm May 27 5:00 pm
796.00 05/27/2020 22:58:08 May 27 06:58 pm May 27 3:58 pm
804.00 05/27/2020 21:58:24 May 27 05:58 pm May 27 2:58 pm
796.00 05/27/2020 20:58:40 May 27 04:58 pm May 27 1:58 pm
789.00 05/27/2020 19:58:56 May 27 03:58 pm May 27 12:58 pm
796.00 05/27/2020 18:59:12 May 27 02:59 pm May 27 11:59 am
827.00 05/27/2020 17:59:28 May 27 01:59 pm May 27 10:59 am
835.00 05/27/2020 16:59:44 May 27 12:59 pm May 27 9:59 am
843.00 05/27/2020 14:58:08 May 27 10:58 am May 27 7:58 am
851.00 05/27/2020 13:58:24 May 27 09:58 am May 27 6:58 am
859.00 05/27/2020 12:58:40 May 27 08:58 am May 27 5:58 am
876.00 05/27/2020 11:58:56 May 27 07:58 am May 27 4:58 am
884.00 05/27/2020 10:59:12 May 27 06:59 am May 27 3:59 am
892.00 05/27/2020 09:59:28 May 27 05:59 am May 27 2:59 am
909.00 05/27/2020 08:59:44 May 27 04:59 am May 27 1:59 am
918.00 05/27/2020 08:00:00 May 27 04:00 am May 27 1:00 am
935.00 05/27/2020 06:58:08 May 27 02:58 am May 26 11:58 pm
954.00 05/27/2020 05:58:24 May 27 01:58 am May 26 10:58 pm
972.00 05/27/2020 04:58:40 May 27 12:58 am May 26 9:58 pm
1001.00 05/27/2020 03:58:56 May 26 11:58 pm May 26 8:58 pm
991.00 05/27/2020 02:59:12 May 26 10:59 pm May 26 7:59 pm
972.00 05/27/2020 01:59:28 May 26 09:59 pm May 26 6:59 pm
982.00 05/27/2020 00:59:44 May 26 08:59 pm May 26 5:59 pm
1001.00 05/27/2020 00:00:00 May 26 08:00 pm May 26 5:00 pm
1036.00 05/26/2020 22:58:08 May 26 06:58 pm May 26 3:58 pm
1068.00 05/26/2020 21:58:24 May 26 05:58 pm May 26 2:58 pm
963.00 05/26/2020 20:58:40 May 26 04:58 pm May 26 1:58 pm
954.00 05/26/2020 19:58:56 May 26 03:58 pm May 26 12:58 pm
954.00 05/26/2020 18:59:12 May 26 02:59 pm May 26 11:59 am
954.00 05/26/2020 17:59:28 May 26 01:59 pm May 26 10:59 am
982.00 05/26/2020 16:59:44 May 26 12:59 pm May 26 9:59 am
1010.00 05/26/2020 14:58:08 May 26 10:58 am May 26 7:58 am
1020.00 05/26/2020 13:58:24 May 26 09:58 am May 26 6:58 am
1044.00 05/26/2020 12:58:40 May 26 08:58 am May 26 5:58 am
1068.00 05/26/2020 11:58:56 May 26 07:58 am May 26 4:58 am
1084.00 05/26/2020 10:59:12 May 26 06:59 am May 26 3:59 am
1110.00 05/26/2020 09:59:28 May 26 05:59 am May 26 2:59 am
1149.00 05/26/2020 08:59:44 May 26 04:59 am May 26 1:59 am
1200.00 05/26/2020 08:00:00 May 26 04:00 am May 26 1:00 am
1249.00 05/26/2020 06:58:08 May 26 02:58 am May 25 11:58 pm
1311.00 05/26/2020 05:58:24 May 26 01:58 am May 25 10:58 pm
1410.00 05/26/2020 04:58:40 May 26 12:58 am May 25 9:58 pm
1520.00 05/26/2020 03:58:56 May 25 11:58 pm May 25 8:58 pm
1628.00 05/26/2020 02:59:12 May 25 10:59 pm May 25 7:59 pm
1773.00 05/26/2020 01:59:28 May 25 09:59 pm May 25 6:59 pm
1410.00 05/26/2020 00:59:44 May 25 08:59 pm May 25 5:59 pm
876.00 05/26/2020 00:00:00 May 25 08:00 pm May 25 5:00 pm
876.00 05/25/2020 22:58:08 May 25 06:58 pm May 25 3:58 pm
884.00 05/25/2020 21:58:24 May 25 05:58 pm May 25 2:58 pm
892.00 05/25/2020 20:58:40 May 25 04:58 pm May 25 1:58 pm
901.00 05/25/2020 19:58:56 May 25 03:58 pm May 25 12:58 pm
901.00 05/25/2020 18:59:12 May 25 02:59 pm May 25 11:59 am
926.00 05/25/2020 17:59:28 May 25 01:59 pm May 25 10:59 am
935.00 05/25/2020 16:59:44 May 25 12:59 pm May 25 9:59 am
982.00 05/25/2020 14:58:08 May 25 10:58 am May 25 7:58 am
991.00 05/25/2020 13:58:24 May 25 09:58 am May 25 6:58 am
1028.00 05/25/2020 12:58:40 May 25 08:58 am May 25 5:58 am
1052.00 05/25/2020 11:58:56 May 25 07:58 am May 25 4:58 am
1076.00 05/25/2020 10:59:12 May 25 06:59 am May 25 3:59 am
1120.00 05/25/2020 09:59:28 May 25 05:59 am May 25 2:59 am
1180.00 05/25/2020 08:59:44 May 25 04:59 am May 25 1:59 am
1229.00 05/25/2020 08:00:00 May 25 04:00 am May 25 1:00 am
1270.00 05/25/2020 06:58:08 May 25 02:58 am May 24 11:58 pm
1229.00 05/25/2020 05:58:24 May 25 01:58 am May 24 10:58 pm
1020.00 05/25/2020 04:58:40 May 25 12:58 am May 24 9:58 pm
867.00 05/25/2020 03:58:56 May 24 11:58 pm May 24 8:58 pm
819.00 05/25/2020 02:59:12 May 24 10:59 pm May 24 7:59 pm
819.00 05/25/2020 01:59:28 May 24 09:59 pm May 24 6:59 pm
819.00 05/25/2020 00:59:44 May 24 08:59 pm May 24 5:59 pm
843.00 05/25/2020 00:00:00 May 24 08:00 pm May 24 5:00 pm
884.00 05/24/2020 22:58:08 May 24 06:58 pm May 24 3:58 pm
1001.00 05/24/2020 21:58:24 May 24 05:58 pm May 24 2:58 pm
1159.00 05/24/2020 20:58:40 May 24 04:58 pm May 24 1:58 pm
982.00 05/24/2020 19:58:56 May 24 03:58 pm May 24 12:58 pm
827.00 05/24/2020 18:59:12 May 24 02:59 pm May 24 11:59 am
843.00 05/24/2020 17:59:28 May 24 01:59 pm May 24 10:59 am
843.00 05/24/2020 16:59:44 May 24 12:59 pm May 24 9:59 am
859.00 05/24/2020 14:58:08 May 24 10:58 am May 24 7:58 am
867.00 05/24/2020 13:58:24 May 24 09:58 am May 24 6:58 am
876.00 05/24/2020 12:58:40 May 24 08:58 am May 24 5:58 am
884.00 05/24/2020 11:58:56 May 24 07:58 am May 24 4:58 am
892.00 05/24/2020 10:59:12 May 24 06:59 am May 24 3:59 am
909.00 05/24/2020 09:59:28 May 24 05:59 am May 24 2:59 am
909.00 05/24/2020 08:59:44 May 24 04:59 am May 24 1:59 am
935.00 05/24/2020 08:00:00 May 24 04:00 am May 24 1:00 am
935.00 05/24/2020 06:58:08 May 24 02:58 am May 23 11:58 pm
954.00 05/24/2020 05:58:24 May 24 01:58 am May 23 10:58 pm
963.00 05/24/2020 04:58:40 May 24 12:58 am May 23 9:58 pm
963.00 05/24/2020 03:58:56 May 23 11:58 pm May 23 8:58 pm
991.00 05/24/2020 02:59:12 May 23 10:59 pm May 23 7:59 pm
991.00 05/24/2020 01:59:28 May 23 09:59 pm May 23 6:59 pm
1010.00 05/24/2020 00:59:44 May 23 08:59 pm May 23 5:59 pm
1020.00 05/24/2020 00:00:00 May 23 08:00 pm May 23 5:00 pm
1028.00 05/23/2020 22:58:08 May 23 06:58 pm May 23 3:58 pm
1052.00 05/23/2020 21:58:24 May 23 05:58 pm May 23 2:58 pm
1068.00 05/23/2020 20:58:40 May 23 04:58 pm May 23 1:58 pm
1068.00 05/23/2020 19:58:56 May 23 03:58 pm May 23 12:58 pm
1084.00 05/23/2020 18:59:12 May 23 02:59 pm May 23 11:59 am
1100.00 05/23/2020 17:59:28 May 23 01:59 pm May 23 10:59 am
1100.00 05/23/2020 16:59:44 May 23 12:59 pm May 23 9:59 am
1129.00 05/23/2020 14:58:08 May 23 10:58 am May 23 7:58 am
1149.00 05/23/2020 13:58:24 May 23 09:58 am May 23 6:58 am
1169.00 05/23/2020 12:58:40 May 23 08:58 am May 23 5:58 am
1190.00 05/23/2020 11:58:56 May 23 07:58 am May 23 4:58 am
1229.00 05/23/2020 10:59:12 May 23 06:59 am May 23 3:59 am
1239.00 05/23/2020 09:59:28 May 23 05:59 am May 23 2:59 am
1249.00 05/23/2020 08:59:44 May 23 04:59 am May 23 1:59 am
1239.00 05/23/2020 08:00:00 May 23 04:00 am May 23 1:00 am
1210.00 05/23/2020 06:58:08 May 23 02:58 am May 22 11:58 pm
1210.00 05/23/2020 05:58:24 May 23 01:58 am May 22 10:58 pm
1200.00 05/23/2020 04:58:40 May 23 12:58 am May 22 9:58 pm
1190.00 05/23/2020 03:58:56 May 22 11:58 pm May 22 8:58 pm
1180.00 05/23/2020 02:59:12 May 22 10:59 pm May 22 7:59 pm
1169.00 05/23/2020 01:59:28 May 22 09:59 pm May 22 6:59 pm
1169.00 05/23/2020 00:59:44 May 22 08:59 pm May 22 5:59 pm
1149.00 05/23/2020 00:00:00 May 22 08:00 pm May 22 5:00 pm
1120.00 05/22/2020 22:58:08 May 22 06:58 pm May 22 3:58 pm
1020.00 05/22/2020 21:58:24 May 22 05:58 pm May 22 2:58 pm
892.00 05/22/2020 20:58:40 May 22 04:58 pm May 22 1:58 pm
867.00 05/22/2020 19:58:56 May 22 03:58 pm May 22 12:58 pm
812.00 05/22/2020 18:59:12 May 22 02:59 pm May 22 11:59 am
804.00 05/22/2020 17:59:28 May 22 01:59 pm May 22 10:59 am
773.00 05/22/2020 16:59:44 May 22 12:59 pm May 22 9:59 am
766.00 05/22/2020 14:58:08 May 22 10:58 am May 22 7:58 am
766.00 05/22/2020 13:58:24 May 22 09:58 am May 22 6:58 am
773.00 05/22/2020 12:58:40 May 22 08:58 am May 22 5:58 am
773.00 05/22/2020 11:58:56 May 22 07:58 am May 22 4:58 am
773.00 05/22/2020 10:59:12 May 22 06:59 am May 22 3:59 am
789.00 05/22/2020 09:59:28 May 22 05:59 am May 22 2:59 am
804.00 05/22/2020 08:59:44 May 22 04:59 am May 22 1:59 am
812.00 05/22/2020 08:00:00 May 22 04:00 am May 22 1:00 am
819.00 05/22/2020 06:58:08 May 22 02:58 am May 21 11:58 pm
827.00 05/22/2020 05:58:24 May 22 01:58 am May 21 10:58 pm
827.00 05/22/2020 04:58:40 May 22 12:58 am May 21 9:58 pm
835.00 05/22/2020 03:58:56 May 21 11:58 pm May 21 8:58 pm
843.00 05/22/2020 02:59:12 May 21 10:59 pm May 21 7:59 pm
843.00 05/22/2020 01:59:28 May 21 09:59 pm May 21 6:59 pm
843.00 05/22/2020 00:59:44 May 21 08:59 pm May 21 5:59 pm
859.00 05/22/2020 00:00:00 May 21 08:00 pm May 21 5:00 pm
867.00 05/21/2020 22:58:08 May 21 06:58 pm May 21 3:58 pm
876.00 05/21/2020 21:58:24 May 21 05:58 pm May 21 2:58 pm
892.00 05/21/2020 20:58:40 May 21 04:58 pm May 21 1:58 pm
901.00 05/21/2020 19:58:56 May 21 03:58 pm May 21 12:58 pm
909.00 05/21/2020 18:59:12 May 21 02:59 pm May 21 11:59 am
926.00 05/21/2020 17:59:28 May 21 01:59 pm May 21 10:59 am
926.00 05/21/2020 16:59:44 May 21 12:59 pm May 21 9:59 am
954.00 05/21/2020 14:58:08 May 21 10:58 am May 21 7:58 am
963.00 05/21/2020 13:58:24 May 21 09:58 am May 21 6:58 am
972.00 05/21/2020 12:58:40 May 21 08:58 am May 21 5:58 am
991.00 05/21/2020 11:58:56 May 21 07:58 am May 21 4:58 am
1020.00 05/21/2020 10:59:12 May 21 06:59 am May 21 3:59 am
1036.00 05/21/2020 09:59:28 May 21 05:59 am May 21 2:59 am
1052.00 05/21/2020 08:59:44 May 21 04:59 am May 21 1:59 am
1068.00 05/21/2020 08:00:00 May 21 04:00 am May 21 1:00 am
1084.00 05/21/2020 06:58:08 May 21 02:58 am May 20 11:58 pm
1100.00 05/21/2020 05:58:24 May 21 01:58 am May 20 10:58 pm
1110.00 05/21/2020 04:58:40 May 21 12:58 am May 20 9:58 pm
1129.00 05/21/2020 03:58:56 May 20 11:58 pm May 20 8:58 pm
1159.00 05/21/2020 02:59:12 May 20 10:59 pm May 20 7:59 pm
1200.00 05/21/2020 01:59:28 May 20 09:59 pm May 20 6:59 pm
1249.00 05/21/2020 00:59:44 May 20 08:59 pm May 20 5:59 pm
1290.00 05/21/2020 00:00:00 May 20 08:00 pm May 20 5:00 pm
1343.00 05/20/2020 22:58:08 May 20 06:58 pm May 20 3:58 pm

Reports give the public a chance to report on river conditions throughout the country as well as log the history of a river.

No Reports Filed

Linked Reaches

River Name/Section Class Level   Updated
Little Pigeon, Middle Prong [TN] 4. Highway 73 to Richardson Cove II-III 398 cfs
+ 5 cfs/hr
L4-
Below Recom.

01h09m